Tracking 19794 objects as of 21-Jul-2019
HD Live streaming from Space Station
objects crossing your sky now

CZ-2C DEB

Track CZ-2C DEB now!
10-day predictions


NORAD ID: 43534
Int'l Code: 2018-056F
Perigee: 592.3 km
Apogee: 630.7 km
Inclination: 98.0 °
Period: 96.8 minutes
Semi major axis: 6982 km
RCS: Unknown
Launch date: July 9, 2018
Source: People's Republic of China (PRC)
Launch site: Jiuquan Satellite Launch Center, China (JSC)

Note: This is SATELLITE DEBRIS
aabbcc
Your satellite tracking list
Your tracking list is empty




NASA's NSSDC Master Catalog

Two Line Element Set (TLE):
1 43534U 18056F   19201.83003110 +.00000175 +00000-0 +25316-4 0  9992
2 43534 098.0178 281.8357 0027512 125.7840 234.5940 14.87935140056002
Source of the keplerian elements: AFSPC